Flag for Germany Weather past 2 weeks in Laatzen, Lower Saxony, Germany

Now
59 °F

Passing clouds.


Feels Like: 59 °F
Forecast: 49 / 64 °F
Wind: 5 mph from West

Location: Hannover

Current Time: May 5, 2015 at 9:32:38 PM

Latest Report: May 5, 2015 at 9:00 PM


Visibility: 22 mi

Pressure: 29.75 "Hg

Humidity: 62%

Dew point: 46 °F

Location of LaatzenLocation

Historic Weather in Laatzen — Graph

°F

Laatzen temperature yesterday

Maximum temperature yesterday: 68 °F (at 3:00 PM)
Minimum temperature yesterday: 55 °F (at 6:00 AM)
Average temperature yesterday: 61 °F

Past Weeks' High & Low Weather Summary

 TemperatureHumidityPressure
High77 °F (May 5, 4:00 PM)100% (Apr 23, 6:00 AM)30.42 "Hg (Apr 23, 6:00 AM)
Low31 °F (Apr 28, 6:00 AM)31% (Apr 29, 4:00 PM)29.47 "Hg (May 5, 2:00 PM)
Average51 °F72%29.91 "Hg
* Reported Apr 20 8:00 PM — May 5 8:00 PM, Laatzen, Weather by CustomWeather, © 2015

Note: Actual official high and low records may vary slightly from our data, if they occured in-between our weather recording intervals... More about our weather records

Advertising

Laatzen weather history for previous 24 hours

 ConditionsComfort  
Time TempWeatherWind HumidityBarometerVisibility
8:00 PM
Tue, May 5
61 °FPartly sunny.7 mph67%29.70 "Hg25 mi
7:00 PM61 °FOvercast.10 mph63%29.66 "Hg25 mi
6:00 PM66 °FThunderstorms. Overcast.10 mph65%29.59 "Hg25 mi
5:00 PM74 °FThunderstorms. Partly sunny.7 mph53%29.50 "Hg25 mi
4:00 PM77 °FPartly sunny.14 mph48%29.47 "Hg25 mi
3:00 PM76 °FPassing clouds.10 mph49%29.47 "Hg25 mi
2:00 PM73 °FScattered clouds.9 mph62%29.47 "Hg25 mi
1:00 PM67 °FSprinkles. Overcast.6 mph78%29.55 "Hg19 mi
12:00 PM65 °FLight rain. Overcast.5 mph79%29.53 "Hg16 mi
10:00 AM67 °FOvercast.7 mph72%29.50 "Hg25 mi
9:00 AM67 °FPartly sunny.7 mph72%29.50 "Hg25 mi
8:00 AM61 °FPartly sunny.7 mph81%29.50 "Hg25 mi
7:00 AM59 °FPartly sunny.7 mph84%29.50 "Hg25 mi
6:00 AM60 °FOvercast.5 mph79%29.53 "Hg22 mi
4:00 AM60 °FOvercast.5 mph76%29.58 "Hg19 mi
3:00 AM60 °FLight rain. Overcast.5 mph73%29.62 "Hg16 mi
2:00 AM59 °FOvercast.5 mph74%29.65 "Hg25 mi
1:00 AM59 °FOvercast.5 mph69%29.68 "Hg19 mi
12:00 AM58 °FOvercast.5 mph72%29.71 "Hg16 mi
10:00 PM
Mon, May 4
58 °FPassing clouds.2 mph73%29.75 "Hg22 mi
9:00 PM60 °FPassing clouds.2 mph68%29.76 "Hg25 mi
Weather by CustomWeather, © 2015

See weather overviewHow to use our weather pages